[[{"header":{"parameterUnit":"m.s-1","parameterCategory":2,"la1":30.2991,"la2":30.254,"lo1":-89.0895,"lo2":-89.0444,"dy":0.0017,"dx":0.0017,"nx":28,"ny":28,"refTime":"2025-08-31T21:00:00:Z","depth":"0","parameterNumber":2,"parameterNumberName":"U-component_of_CURRENTS"},"data":[0,0,0,0,0,0,0,0,0,0,0,0,0,0,0,0,0,0,0,0,0,0,0,0,0,0,0,0,0,0,0,0,0,0,0,0,0,0,0,0,0,0,0,0,0,0,0,0,0,0,0,0,0,0,0,0,0,0,0.3256,0.3256,0,0.33,0.33,0.3301,0.3302,0.3302,0.3301,0.3301,0.3275,0.3275,0.3275,0,0,0,0,0,0,0,0,0,0,0,0,0,0.3253,0.3253,0.3255,0.3256,0.3257,0.33,0.33,0.3301,0.3302,0.3302,0.3301,0.3301,0.3275,0.3275,0.3275,0,0,0,0,0,0,0,0,0,0,0,0,0,0.3271,0.3252,0.3255,0.3263,0.3264,0.33,0.33,0.3301,0.3302,0.3302,0.3301,0.33,0.3275,0.3275,0.3275,0.3288,0,0,0.3274,0.3274,0,0,0,0,0,0,0,0,0.327,0.3271,0.3261,0.3262,0.3264,0.3295,0.329,0.3293,0.3303,0.3287,0.3301,0.33,0.3276,0.3276,0.3286,0.3287,0.3286,0.3274,0.3274,0.3273,0.3273,0,0,0,0,0,0,0,0.3268,0.3269,0.3273,0.3262,0.3263,0.3292,0.3293,0.3291,0.3284,0.3289,0.3289,0.3295,0.3276,0.3287,0.3285,0.3285,0.3274,0.3274,0.3273,0.3273,0.3336,0.3337,0,0,0,0,0,0,0.326,0.3268,0.3271,0.3274,0.3265,0.3292,0.3293,0.3285,0.3285,0.3285,0.3295,0.3295,0.3288,0.3286,0.3284,0.333,0.3273,0.3273,0.3273,0.3334,0.3336,0.3338,0,0,0,0,0,0,0.326,0.326,0.3269,0.3273,0.3276,0.3292,0.3284,0.3287,0.3301,0.3291,0.329,0.3307,0.3287,0.3285,0.3298,0.3328,0.3273,0.3273,0.3332,0.3335,0.3337,0.3401,0,0,0,0,0,0,0.3259,0.3259,0.3259,0.3272,0.3276,0.3292,0.3285,0.3288,0.3305,0.3305,0.3301,0.3298,0.3286,0.3299,0.3298,0.3326,0.3272,0.3329,0.3333,0.3336,0.3397,0.3406,0.3414,0,0,0,0,0,0.3259,0.3259,0.3258,0.326,0.3272,0.3293,0.3298,0.3307,0.3307,0.3316,0.3321,0.3298,0.332,0.33,0.3298,0.3327,0.3328,0.3332,0.3336,0.3393,0.3404,0.3414,0,0,0,0,0,0,0.3251,0.326,0.3259,0.3259,0.3276,0.3293,0.3305,0.3314,0.3328,0.3325,0.3316,0.3314,0.3343,0.3327,0.3305,0.3358,0.3322,0.3327,0.3367,0.3377,0.3385,0.3409,0.3272,0,0,0,0,0,0.3251,0.3255,0.3268,0.3268,0.3276,0.3294,0.3306,0.3313,0.3324,0.333,0.333,0.3337,0.3361,0.336,0.3372,0.339,0.3409,0.3411,0.342,0.3427,0.3448,0.3511,0.3527,0.3352,0.3352,0.3352,0,0,0.3246,0.3254,0.3254,0.3269,0.3281,0.3305,0.3299,0.3317,0.3346,0.3324,0.3358,0.3367,0.3376,0.3408,0.3419,0.3394,0.3486,0.3432,0.3438,0.3455,0.3517,0.3534,0.3549,0.3355,0.3354,0.3354,0,0,0.3248,0.3246,0.3256,0.3275,0.3298,0.3315,0.3322,0.3343,0.3361,0.339,0.3399,0.3432,0.3437,0.347,0.3483,0.3545,0.3536,0.354,0.3592,0.3652,0.3668,0.3681,0.3724,0.374,0.3535,0.3535,0.3535,0,0.3245,0.3255,0.3264,0.3286,0.3306,0.3321,0.3345,0.3373,0.3399,0.3428,0.3403,0.3477,0.3477,0.3553,0.3578,0.3566,0.359,0.3548,0.3664,0.3678,0.3691,0.3731,0.3749,0.3539,0.3538,0.3538,0.3537,0,0.3259,0.3273,0.3282,0.3316,0.3341,0.336,0.3399,0.343,0.3447,0.3479,0.3547,0.3562,0.3608,0.3617,0.3614,0.3712,0.3697,0.3674,0.3638,0.3712,0.375,0.3767,0.3544,0.3542,0.3541,0.354,0,0,0.3232,0.3281,0.3285,0.3308,0.3356,0.3377,0.3436,0.3498,0.3555,0.358,0.3654,0.3705,0.372,0.3739,0.3748,0.3799,0.3905,0.3776,0.3777,0.3817,0.4035,0.3931,0.3939,0.39,0.3903,0.3906,0.4023,0,0.3241,0.3282,0.3309,0.3357,0.3382,0.3426,0.3485,0.3547,0.3602,0.3678,0.3723,0.379,0.3765,0.3794,0.3848,0.3901,0.3955,0.3875,0.3958,0.3961,0.3859,0.3957,0.3778,0.3859,0.404,0.4043,0.4045,0,0.3241,0.3276,0.3316,0.3386,0.3402,0.3438,0.3539,0.3597,0.3716,0.3764,0.3843,0.3876,0.3976,0.3929,0.4061,0.4011,0.4037,0.4062,0.4067,0.3962,0.3889,0.3815,0.3884,0.3778,0.4071,0.4069,0.4067,0,0.3215,0.3278,0.3309,0.3331,0.3416,0.3451,0.3504,0.3619,0.3687,0.3828,0.3879,0.3997,0.4049,0.4119,0.4158,0.4125,0.4288,0.4241,0.4175,0.4167,0.4028,0.4001,0.4002,0.4341,0.4341,0.434,0.434,0,0.3209,0.3236,0.3298,0.3318,0.3381,0.3441,0.3527,0.3613,0.3735,0.3821,0.3916,0.3992,0.41,0.4183,0.4215,0.4252,0.4333,0.4217,0.4204,0.4042,0.4016,0.3926,0.3885,0.4345,0.4344,0.4343,0.4342,0,0.3179,0.3211,0.3259,0.3341,0.3366,0.3414,0.3522,0.3589,0.3709,0.3824,0.3865,0.4021,0.4131,0.4213,0.434,0.4305,0.4233,0.4347,0.4139,0.4098,0.3894,0.3863,0.3743,0.3634,0.4298,0.4296,0.4295,0,0.3166,0.3185,0.3265,0.3292,0.3327,0.3398,0.3447,0.3571,0.3642,0.3823,0.3868,0.4015,0.4104,0.4248,0.4234,0.4282,0.4179,0.4125,0.4023,0.3885,0.3844,0.3703,0.361,0.3872,0.3868,0.3864,0.3861,0,0.3158,0.3182,0.3227,0.3273,0.3315,0.3364,0.3437,0.3491,0.3631,0.3706,0.383,0.392,0.4047,0.4022,0.4069,0.4068,0.3904,0.4042,0.3969,0.3577,0.3359,0.3244,0.3789,0.3826,0.3829,0.3832,0.3834,0.3835,0.315,0.3175,0.3217,0.3251,0.3285,0.3302,0.3297,0.3374,0.344,0.35,0.3686,0.3711,0.38,0.3835,0.3816,0.364,0.3652,0.3519,0.3519,0.3407,0.3214,0.3671,0.3639,0.3642,0.3644,0.3645,0.3647,0,0.312,0.3144,0.3185,0.3193,0.3162,0.3212,0.3253,0.3208,0.3202,0.3298,0.3354,0.3374,0.3362,0.3404,0.3299,0.3144,0.301,0.3061,0.2842,0.2797,0.3273,0.3164,0.2943,0.2943,0.2943,0.2943,0.2943,0.2943,0.3109,0.3111,0.3119,0.3045,0.3034,0.294,0.2925,0.2887,0.2905,0.2848,0.2807,0.2874,0.3035,0.3045,0.2888,0.2806,0.2592,0.2447,0.248,0.2839,0.2882,0.2922,0.2811,0.2519,0.2518,0.1861,0.1856,0.1852]},{"header":{"parameterUnit":"m.s-1","parameterCategory":2,"la1":30.2991,"la2":30.254,"lo1":-89.0895,"lo2":-89.0444,"dy":0.0017,"dx":0.0017,"nx":28,"ny":28,"refTime":"2025-08-31T21:00:00:Z","depth":"0","parameterNumber":3,"parameterNumberName":"V-component_of_CURRENTS"},"data":[0,0,0,0,0,0,0,0,0,0,0,0,0,0,0,0,0,0,0,0,0,0,0,0,0,0,0,0,0,0,0,0,0,0,0,0,0,0,0,0,0,0,0,0,0,0,0,0,0,0,0,0,0,0,0,0,0,0,0.0161,0.0161,0,0.0103,0.0102,0.0101,0.0055,0.0054,0.0054,0.0054,-0.0026,-0.0028,-0.003,0,0,0,0,0,0,0,0,0,0,0,0,0,0.018,0.018,0.0161,0.0161,0.016,0.0103,0.0102,0.0101,0.0055,0.0054,0.0054,0.0054,-0.0026,-0.0028,-0.003,0,0,0,0,0,0,0,0,0,0,0,0,0,0.015,0.018,0.0161,0.0132,0.0129,0.0103,0.0102,0.0101,0.0055,0.0054,0.0054,0.0054,-0.0025,-0.0028,-0.003,-0.004,0,0,-0.0039,-0.004,0,0,0,0,0,0,0,0,0.0152,0.0149,0.0137,0.0134,0.013,0.0088,0.0079,0.0053,0.0055,0.0081,0.0054,0.0053,0.0012,0.0006,-0.0007,-0.0044,-0.0047,-0.0039,-0.0041,-0.0042,-0.0043,0,0,0,0,0,0,0,0.0154,0.0151,0.0136,0.0136,0.0132,0.0104,0.0099,0.0074,0.0047,0.0078,0.0075,0.0072,0.0009,-0.0004,-0.001,-0.0049,-0.0039,-0.0042,-0.0043,-0.0045,-0.0105,-0.0105,0,0,0,0,0,0,0.0169,0.0153,0.0138,0.0134,0.0143,0.0104,0.0099,0.01,0.0047,0.004,0.0073,0.0071,0.0001,-0.0006,-0.0012,-0.0016,-0.0042,-0.0045,-0.0047,-0.0105,-0.0105,-0.0105,0,0,0,0,0,0,0.017,0.0168,0.014,0.0144,0.0139,0.0105,0.0106,0.0099,0.0088,0.0044,0.0035,0.007,0.0,-0.0009,-0.003,-0.002,-0.0046,-0.0049,-0.0105,-0.0105,-0.0105,-0.003,0,0,0,0,0,0,0.0171,0.0169,0.0172,0.0145,0.0139,0.0134,0.0106,0.0098,0.0088,0.0085,0.0039,0.0031,-0.0001,-0.0025,-0.0033,-0.0024,-0.0051,-0.0105,-0.0105,-0.0105,-0.0032,-0.0027,-0.0023,0,0,0,0,0,0.0172,0.0183,0.0173,0.0171,0.0146,0.0135,0.0129,0.0102,0.0089,0.0089,0.0057,0.0032,-0.003,-0.0027,-0.0036,-0.0028,-0.0106,-0.0105,-0.0105,-0.0035,-0.0028,-0.0023,0,0,0,0,0,0,0.0191,0.0179,0.0167,0.0173,0.0159,0.0128,0.0126,0.0109,0.0084,0.008,0.0036,0.0026,0.0009,-0.0021,-0.0017,-0.0047,-0.0073,-0.0074,-0.0016,-0.0011,-0.0006,0.0017,-0.0053,0,0,0,0,0,0.0198,0.0204,0.0186,0.019,0.0186,0.0157,0.0149,0.0134,0.011,0.0098,0.0067,0.0031,0.0002,-0.0011,-0.0043,-0.0054,-0.0072,-0.0057,-0.0052,-0.0048,-0.0037,-0.0059,-0.0054,-0.0104,-0.0104,-0.0104,0,0,0.0206,0.0201,0.0203,0.0194,0.0179,0.0185,0.0151,0.0147,0.0149,0.0094,0.0086,0.0049,0.0002,-0.0014,-0.0024,-0.0035,-0.0041,-0.0048,-0.0043,-0.0035,-0.0058,-0.0053,-0.0049,-0.0104,-0.0104,-0.0104,0,0,0.0232,0.0222,0.0238,0.0231,0.0221,0.0207,0.0211,0.0188,0.0174,0.0162,0.0121,0.0095,0.0051,0.0023,0.0001,0.0015,-0.0015,0.0001,0.0047,0.0025,0.003,0.0033,0.0033,0.0036,0.0005,0.0005,0.0005,0,0.0241,0.026,0.024,0.0254,0.0257,0.0223,0.0243,0.0225,0.0197,0.0194,0.017,0.011,0.007,0.0053,0.0054,0.0028,0.0017,0.0031,0.0034,0.0037,0.0039,0.0037,0.004,0.0009,0.0008,0.0008,0.0007,0,0.028,0.0293,0.0303,0.0312,0.0311,0.0323,0.0303,0.0298,0.0277,0.026,0.0239,0.0181,0.0149,0.0127,0.0093,0.009,0.0078,0.0044,0.0025,0.0049,0.0045,0.0047,0.0014,0.0012,0.0011,0.001,0,0,0.0307,0.0328,0.0332,0.0351,0.0347,0.0355,0.0359,0.036,0.0378,0.033,0.0345,0.0277,0.0248,0.0221,0.0172,0.0149,0.0155,0.0111,0.0108,0.0123,0.0127,0.0115,0.0115,0.0122,0.0122,0.0122,0.0124,0,0.0345,0.0394,0.039,0.0433,0.0458,0.0435,0.0446,0.044,0.043,0.0435,0.0368,0.0357,0.0283,0.0272,0.0237,0.0181,0.0159,0.0159,0.009,0.0089,0.0085,0.0115,0.0129,0.0131,0.0124,0.0124,0.0125,0,0.0386,0.0416,0.0469,0.0507,0.0515,0.0531,0.0558,0.057,0.056,0.0551,0.0522,0.0472,0.0431,0.036,0.0279,0.0284,0.0214,0.0161,0.0159,0.0123,0.0079,0.01,0.0132,-0.0,0.0126,0.0126,0.0126,0,0.0426,0.0472,0.0522,0.0532,0.0564,0.058,0.0599,0.0605,0.0641,0.0632,0.0652,0.0582,0.0566,0.0462,0.0347,0.0315,0.0266,0.0205,0.0127,0.0126,0.0112,0.0109,0.0017,0.0142,0.0142,0.0142,0.0142,0,0.0471,0.051,0.0545,0.0571,0.0637,0.0636,0.0708,0.0712,0.0745,0.0812,0.072,0.0753,0.059,0.0533,0.0402,0.0289,0.0307,0.0151,0.0126,0.0139,0.0138,-0.0001,-0.0088,0.0142,0.0142,0.0142,0.0142,0,0.0508,0.0528,0.0592,0.0638,0.0658,0.0708,0.0788,0.0847,0.0857,0.0944,0.0944,0.0897,0.0831,0.0671,0.0529,0.0382,0.018,0.0206,0.0244,0.0224,0.0003,-0.008,-0.0205,-0.0267,0.0118,0.0118,0.0118,0,0.0534,0.057,0.0647,0.0699,0.0723,0.08,0.0861,0.09,0.0979,0.1046,0.1099,0.1052,0.1066,0.0854,0.0587,0.0372,0.0208,0.0208,0.013,0.0008,-0.0103,-0.0171,-0.0219,0.0148,0.0148,0.0148,0.0148,0,0.0589,0.0612,0.0667,0.0773,0.0845,0.0944,0.1037,0.1117,0.1186,0.1273,0.1385,0.1405,0.1193,0.0987,0.0655,0.0481,0.0109,0.02,0.006,-0.0093,-0.0159,-0.0234,0.0141,0.0149,0.0149,0.0149,0.0149,0.0149,0.0631,0.0681,0.0756,0.0856,0.0951,0.1081,0.1176,0.1301,0.1455,0.1606,0.1616,0.1687,0.1335,0.0896,0.0632,0.0135,0.0113,-0.0027,-0.0115,-0.017,-0.0245,0.0142,0.0123,0.0122,0.0122,0.0122,0.0122,0,0.0687,0.0744,0.0839,0.0961,0.1078,0.1116,0.129,0.1406,0.1611,0.1769,0.1895,0.178,0.1362,0.0889,0.0214,-0.0122,-0.0252,-0.0303,-0.0403,-0.0437,-0.0096,-0.011,-0.0163,-0.0163,-0.0163,-0.0163,-0.0163,-0.0163,0.0718,0.0808,0.0854,0.1042,0.1138,0.1299,0.1405,0.1593,0.1742,0.1958,0.202,0.2037,0.167,0.0511,-0.0247,-0.0412,-0.0652,-0.0705,-0.082,-0.0598,-0.0579,-0.0561,-0.0595,-0.0748,-0.0749,-0.1112,-0.1116,-0.1119]}],[{"header":{"parameterUnit":"m.s-1","parameterCategory":2,"la1":30.2991,"la2":30.254,"lo1":-89.0895,"lo2":-89.0444,"dy":0.0017,"dx":0.0017,"nx":28,"ny":28,"refTime":"2025-08-31T21:00:00:Z","depth":"2","parameterNumber":2,"parameterNumberName":"U-component_of_CURRENTS"},"data":[0,0,0,0,0,0,0,0,0,0,0,0,0,0,0,0,0,0,0,0,0,0,0,0,0,0,0,0,0,0,0,0,0,0,0,0,0,0,0,0,0,0,0,0,0,0,0,0,0,0,0,0,0,0,0,0,0,0,0.2561,0.2561,0,0.2579,0.2579,0.2579,0.2593,0.2593,0.2594,0.2594,0.2617,0.2617,0.2618,0,0,0,0,0,0,0,0,0,0,0,0,0,0.2533,0.2534,0.2561,0.2561,0.2562,0.2579,0.2579,0.2579,0.2593,0.2593,0.2594,0.2594,0.2617,0.2617,0.2618,0,0,0,0,0,0,0,0,0,0,0,0,0,0.2545,0.2534,0.2561,0.2573,0.2574,0.2579,0.2579,0.2579,0.2593,0.2593,0.2594,0.2594,0.2617,0.2617,0.2618,0.261,0,0,0.2619,0.2619,0,0,0,0,0,0,0,0,0.2545,0.2546,0.257,0.2572,0.2573,0.2586,0.2578,0.259,0.2593,0.2583,0.2594,0.2594,0.2608,0.261,0.2608,0.2611,0.2612,0.2619,0.2619,0.262,0.262,0,0,0,0,0,0,0,0.2544,0.2545,0.2566,0.2571,0.2573,0.2575,0.2577,0.258,0.2591,0.2584,0.2586,0.2591,0.2609,0.2608,0.2609,0.2613,0.2619,0.262,0.262,0.262,0.2686,0.2688,0,0,0,0,0,0,0.2546,0.2545,0.2565,0.2567,0.2563,0.2575,0.2578,0.258,0.2591,0.2594,0.2591,0.2592,0.2607,0.2609,0.261,0.2655,0.262,0.262,0.262,0.2685,0.2687,0.2688,0,0,0,0,0,0,0.2545,0.2547,0.2565,0.2558,0.2561,0.2575,0.2578,0.258,0.2595,0.2596,0.2599,0.2606,0.2607,0.2609,0.2641,0.2654,0.262,0.2621,0.2683,0.2685,0.2687,0.271,0,0,0,0,0,0,0.2544,0.2547,0.2548,0.2558,0.2561,0.2588,0.2577,0.258,0.2598,0.26,0.261,0.2612,0.2608,0.2641,0.2642,0.2654,0.2621,0.2681,0.2684,0.2687,0.2707,0.2713,0.2717,0,0,0,0,0,0.2543,0.2546,0.2548,0.255,0.2562,0.259,0.2592,0.2602,0.2598,0.2615,0.2626,0.2612,0.2659,0.2642,0.2643,0.2655,0.268,0.2683,0.2686,0.2705,0.2712,0.2717,0,0,0,0,0,0,0.2538,0.2548,0.255,0.2557,0.2581,0.2593,0.2607,0.261,0.263,0.2634,0.263,0.2633,0.2671,0.2664,0.2645,0.2686,0.2667,0.2671,0.2681,0.2687,0.2692,0.2733,0.2621,0,0,0,0,0,0.2536,0.2542,0.2559,0.2569,0.2582,0.2596,0.2606,0.2617,0.2635,0.2643,0.2648,0.266,0.2682,0.2686,0.2705,0.2718,0.2741,0.2729,0.2734,0.2738,0.2775,0.2818,0.2831,0.2699,0.2699,0.2699,0,0,0.2535,0.2545,0.2546,0.2569,0.2587,0.261,0.2604,0.2633,0.2652,0.2642,0.2671,0.2684,0.2695,0.2722,0.2735,0.2715,0.2785,0.2742,0.2746,0.2781,0.2823,0.2836,0.2847,0.2701,0.2701,0.2701,0,0,0.2542,0.2552,0.2558,0.2582,0.2614,0.263,0.2643,0.2665,0.2678,0.2709,0.2711,0.2746,0.2756,0.2775,0.2783,0.283,0.2821,0.2818,0.2861,0.2901,0.2913,0.2923,0.2952,0.2965,0.2806,0.2806,0.2806,0,0.2538,0.2552,0.2569,0.259,0.2613,0.2642,0.2666,0.2686,0.2714,0.2734,0.2729,0.2789,0.2792,0.2838,0.2856,0.2843,0.2858,0.2829,0.2908,0.2918,0.2929,0.2956,0.297,0.2808,0.2807,0.2807,0.2807,0,0.2554,0.2568,0.2584,0.2617,0.2647,0.2679,0.2713,0.2741,0.2761,0.2782,0.2844,0.2862,0.2902,0.2896,0.2891,0.2956,0.2941,0.2917,0.2889,0.2943,0.2968,0.2982,0.281,0.2809,0.2809,0.2808,0,0,0.2531,0.2581,0.2586,0.2602,0.2666,0.2687,0.2738,0.2791,0.2833,0.2865,0.2916,0.2965,0.2987,0.3002,0.2995,0.3027,0.3098,0.3001,0.3003,0.3027,0.3183,0.3111,0.3118,0.3076,0.3079,0.3082,0.3165,0,0.2539,0.257,0.2604,0.2645,0.2665,0.2718,0.277,0.2823,0.2875,0.293,0.2969,0.3025,0.302,0.3042,0.308,0.3105,0.314,0.3078,0.3133,0.3136,0.3061,0.3134,0.288,0.2928,0.3178,0.3181,0.3182,0,0.2541,0.2561,0.26,0.2656,0.2674,0.2716,0.2809,0.2854,0.2948,0.2989,0.3061,0.3097,0.3174,0.3146,0.3247,0.3203,0.3213,0.3222,0.3224,0.3169,0.3091,0.2919,0.2944,0.3206,0.3204,0.3202,0.32,0,0.2505,0.2555,0.2586,0.2607,0.2683,0.2722,0.2773,0.2877,0.2936,0.3034,0.3094,0.3182,0.3234,0.3281,0.3319,0.3289,0.3409,0.3359,0.3307,0.3301,0.3107,0.3079,0.3436,0.3436,0.3436,0.3436,0.3436,0,0.2492,0.2507,0.2573,0.2586,0.2641,0.2705,0.2792,0.2853,0.297,0.3035,0.3126,0.3194,0.3274,0.3343,0.3357,0.339,0.3446,0.3354,0.3333,0.3105,0.3077,0.3335,0.3323,0.3439,0.3438,0.3438,0.3437,0,0.244,0.2485,0.251,0.2589,0.2624,0.2659,0.279,0.2845,0.2972,0.3059,0.3095,0.3232,0.332,0.3389,0.3463,0.3436,0.3467,0.3452,0.3178,0.3124,0.332,0.3308,0.342,0.3418,0.3417,0.3416,0.3415,0,0.2408,0.2424,0.2499,0.2521,0.2559,0.2635,0.269,0.2823,0.2879,0.3065,0.3083,0.323,0.3285,0.3396,0.338,0.3408,0.3458,0.317,0.3075,0.3358,0.3326,0.3316,0.3305,0.2818,0.2812,0.2807,0.2804,0,0.2352,0.2391,0.2414,0.2468,0.2517,0.256,0.264,0.2691,0.283,0.2915,0.3014,0.309,0.3212,0.313,0.318,0.3152,0.3148,0.3076,0.3456,0.2862,0.2797,0.2763,0.2772,0.2762,0.2766,0.2769,0.2771,0.2773,0.2313,0.2307,0.236,0.2395,0.2443,0.2455,0.2459,0.2532,0.2598,0.2675,0.2827,0.2851,0.2918,0.2871,0.2797,0.2745,0.2961,0.2818,0.283,0.2847,0.2763,0.27,0.263,0.2633,0.2636,0.2639,0.2641,0,0.2254,0.2256,0.2284,0.2299,0.2297,0.2372,0.2398,0.2362,0.2359,0.246,0.2523,0.2369,0.2347,0.2415,0.2283,0.2298,0.2245,0.2195,0.2099,0.2144,0.2184,0.2061,0.1745,0.1742,0.1739,0.1736,0,0,0.2221,0.2202,0.2201,0.2158,0.2175,0.2114,0.2103,0.2059,0.2081,0.2049,0.205,0.2242,0.2356,0.2013,0.1985,0.1839,0.1966,0.1765,0.2493,0.2427,0.2462,0.2566,0.2434,0,0,0,0,0]},{"header":{"parameterUnit":"m.s-1","parameterCategory":2,"la1":30.2991,"la2":30.254,"lo1":-89.0895,"lo2":-89.0444,"dy":0.0017,"dx":0.0017,"nx":28,"ny":28,"refTime":"2025-08-31T21:00:00:Z","depth":"2","parameterNumber":3,"parameterNumberName":"V-component_of_CURRENTS"},"data":[0,0,0,0,0,0,0,0,0,0,0,0,0,0,0,0,0,0,0,0,0,0,0,0,0,0,0,0,0,0,0,0,0,0,0,0,0,0,0,0,0,0,0,0,0,0,0,0,0,0,0,0,0,0,0,0,0,0,0.016,0.0159,0,0.0108,0.0107,0.0107,0.0072,0.0071,0.0071,0.0071,0.0006,0.0004,0.0003,0,0,0,0,0,0,0,0,0,0,0,0,0,0.018,0.018,0.016,0.0159,0.0159,0.0108,0.0107,0.0107,0.0072,0.0071,0.0071,0.0071,0.0006,0.0004,0.0002,0,0,0,0,0,0,0,0,0,0,0,0,0,0.0154,0.018,0.016,0.0136,0.0133,0.0108,0.0107,0.0106,0.0072,0.0071,0.0071,0.0071,0.0007,0.0004,0.0002,-0.0007,0,0,-0.0005,-0.0006,0,0,0,0,0,0,0,0,0.0155,0.0153,0.014,0.0138,0.0135,0.0097,0.009,0.0068,0.0072,0.0094,0.0071,0.0071,0.0036,0.0031,0.0021,-0.001,-0.0013,-0.0005,-0.0007,-0.0008,-0.0008,0,0,0,0,0,0,0,0.0157,0.0154,0.0139,0.0139,0.0136,0.0111,0.0107,0.0086,0.0066,0.0092,0.009,0.0085,0.0034,0.0023,0.0019,-0.0014,-0.0005,-0.0007,-0.0009,-0.001,-0.0054,-0.0053,0,0,0,0,0,0,0.0168,0.0157,0.014,0.0137,0.0145,0.0111,0.0107,0.0108,0.0067,0.006,0.0086,0.0084,0.0027,0.0022,0.0016,0.002,-0.0008,-0.001,-0.0011,-0.0054,-0.0053,-0.0053,0,0,0,0,0,0,0.0169,0.0167,0.0142,0.0146,0.0141,0.0112,0.0113,0.0108,0.01,0.0062,0.0055,0.0084,0.0027,0.002,0.0004,0.0017,-0.0011,-0.0013,-0.0054,-0.0054,-0.0053,0.0017,0,0,0,0,0,0,0.017,0.0168,0.0172,0.0147,0.0141,0.0137,0.0113,0.0107,0.0097,0.0095,0.0058,0.0051,0.0026,0.0008,0.0002,0.0013,-0.0015,-0.0054,-0.0054,-0.0053,0.0014,0.0019,0.0024,0,0,0,0,0,0.0171,0.0182,0.0172,0.017,0.0148,0.0138,0.0133,0.0109,0.0098,0.01,0.0075,0.0053,0.0007,0.0007,-0.0001,0.001,-0.0055,-0.0054,-0.0053,0.0012,0.0018,0.0024,0,0,0,0,0,0,0.019,0.0179,0.0168,0.0174,0.016,0.0132,0.0131,0.0115,0.0096,0.0094,0.0057,0.0049,0.0038,0.0014,0.0015,-0.0003,-0.0028,-0.0029,0.0024,0.003,0.0035,0.0051,-0.0017,0,0,0,0,0,0.0197,0.0204,0.0185,0.0189,0.0185,0.0158,0.015,0.0137,0.0117,0.0108,0.0082,0.0055,0.0034,0.0025,-0.0,-0.0006,-0.0033,-0.0006,-0.0001,0.0004,0.0011,-0.0018,-0.0015,-0.0051,-0.0051,-0.0051,0,0,0.0204,0.0199,0.0201,0.0193,0.0179,0.0185,0.0153,0.0149,0.0154,0.0105,0.0102,0.007,0.0035,0.0027,0.002,0.001,0.0,0.0005,0.0009,0.0014,-0.0017,-0.0014,-0.001,-0.0051,-0.0051,-0.0051,0,0,0.0228,0.0219,0.0235,0.0229,0.0218,0.0205,0.0208,0.0185,0.0176,0.0167,0.0134,0.0113,0.0079,0.006,0.0046,0.0063,0.0025,0.0053,0.0096,0.0068,0.0071,0.0073,0.0047,0.0046,0.0059,0.0059,0.006,0,0.0237,0.0256,0.0236,0.025,0.0253,0.022,0.0239,0.0225,0.0201,0.0201,0.0175,0.0128,0.0096,0.0092,0.0096,0.0075,0.0053,0.0079,0.0076,0.0077,0.0078,0.0051,0.0049,0.0063,0.0062,0.0062,0.0062,0,0.0274,0.0287,0.0296,0.0306,0.0306,0.0316,0.0299,0.0297,0.0278,0.0263,0.0248,0.0197,0.0174,0.0156,0.0131,0.0128,0.0107,0.0083,0.0065,0.0086,0.0055,0.0053,0.0068,0.0067,0.0066,0.0065,0,0,0.0297,0.032,0.0322,0.0344,0.0339,0.0349,0.0357,0.0363,0.0382,0.0337,0.035,0.0298,0.0268,0.0249,0.0209,0.0182,0.0165,0.0143,0.0139,0.0125,0.0105,0.0089,0.0084,0.0142,0.0142,0.0142,0.0082,0,0.0332,0.0382,0.0378,0.0423,0.0449,0.0429,0.0447,0.0445,0.0432,0.0435,0.0376,0.0367,0.0306,0.0297,0.0259,0.0192,0.0161,0.0184,0.0079,0.0076,0.0066,0.0081,0.0102,0.005,0.0079,0.0078,0.0078,0,0.037,0.0403,0.0457,0.0501,0.051,0.0527,0.0559,0.0574,0.0564,0.0553,0.0524,0.0474,0.0429,0.0368,0.0263,0.0282,0.0202,0.014,0.0135,0.0095,0.0055,0.003,0.0043,0.0072,0.0073,0.0073,0.0073,0,0.0411,0.046,0.0511,0.0523,0.056,0.0581,0.0601,0.061,0.0646,0.0631,0.0641,0.0569,0.0543,0.043,0.0294,0.0281,0.0172,0.0137,0.0045,0.0043,0.0027,0.0024,0.006,0.006,0.006,0.0061,0.0061,0,0.0456,0.0496,0.0536,0.0564,0.0635,0.0639,0.071,0.0716,0.0744,0.0795,0.071,0.0723,0.0558,0.0469,0.033,0.0185,0.0198,0.0058,0.0029,0.0052,0.0051,0.0042,0.0041,0.0058,0.0059,0.0059,0.006,0,0.0492,0.0514,0.0582,0.0635,0.0657,0.071,0.079,0.0846,0.0853,0.0912,0.091,0.0847,0.0735,0.0558,0.0382,0.0249,0.0099,0.0041,0.0079,0.0056,-0.0022,-0.0019,-0.0063,-0.0064,-0.0065,-0.0066,-0.0067,0,0.0516,0.0553,0.0637,0.0688,0.0714,0.0794,0.0856,0.0898,0.0965,0.0992,0.1029,0.094,0.0893,0.0628,0.0382,0.0141,0.0103,-0.0004,-0.003,-0.0009,-0.0034,-0.0029,-0.0025,-0.0027,-0.0027,-0.0027,-0.0027,0,0.0565,0.0591,0.0651,0.0755,0.0828,0.0926,0.1014,0.1083,0.1135,0.1178,0.1216,0.1177,0.0932,0.0702,0.037,0.0202,0.0034,-0.0016,-0.0001,0.0005,0.0021,-0.0001,0.0002,-0.0029,-0.0029,-0.0028,-0.0028,-0.0028,0.0602,0.0654,0.073,0.0832,0.0923,0.1039,0.1124,0.1216,0.1323,0.1382,0.1352,0.1296,0.1031,0.0617,0.0329,0.0025,0.0038,-0.0078,-0.0075,-0.0073,-0.0055,-0.0041,-0.0099,-0.0099,-0.0099,-0.0099,-0.01,0,0.0651,0.0708,0.0802,0.0922,0.1026,0.107,0.1219,0.1298,0.1416,0.1464,0.1484,0.1226,0.097,0.0659,0.0217,-0.0047,-0.0072,-0.014,-0.0108,-0.0104,-0.0101,-0.0083,-0.0136,-0.0137,-0.0137,-0.0138,0,0,0.0677,0.0768,0.0816,0.0983,0.1071,0.121,0.1299,0.1403,0.1472,0.1513,0.1485,0.1429,0.1063,0.0737,0.0378,0.0124,0.0066,0.0065,0.0123,0.0207,0.0213,-0.0036,-0.0001,0,0,0,0,0]}],[{"header":{"parameterUnit":"m.s-1","parameterCategory":2,"la1":30.2991,"la2":30.254,"lo1":-89.0895,"lo2":-89.0444,"dy":0.0017,"dx":0.0017,"nx":28,"ny":28,"refTime":"2025-08-31T21:00:00:Z","depth":"4","parameterNumber":2,"parameterNumberName":"U-component_of_CURRENTS"},"data":[0,0,0,0,0,0,0,0,0,0,0,0,0,0,0,0,0,0,0,0,0,0,0,0,0,0,0,0,0,0,0,0,0,0,0,0,0,0,0,0,0,0,0,0,0,0,0,0,0,0,0,0,0,0,0,0,0,0,0.1568,0.1568,0,0.1617,0.1617,0.1617,0.1661,0.1662,0.1662,0.1663,0.1726,0.1727,0.1728,0,0,0,0,0,0,0,0,0,0,0,0,0,0.1502,0.1503,0.1567,0.1568,0.1569,0.1617,0.1617,0.1617,0.1661,0.1662,0.1663,0.1664,0.1726,0.1727,0.1728,0,0,0,0,0,0,0,0,0,0,0,0,0,0.1536,0.1503,0.1567,0.1599,0.1602,0.1616,0.1617,0.1617,0.1661,0.1662,0.1663,0.1664,0.1726,0.1727,0.1728,0.1714,0,0,0.1733,0.1733,0,0,0,0,0,0,0,0,0.1534,0.1538,0.1593,0.1597,0.1601,0.1636,0.1617,0.1651,0.166,0.1635,0.1663,0.1665,0.1699,0.1702,0.1705,0.1717,0.172,0.1733,0.1734,0.1734,0.1735,0,0,0,0,0,0,0,0.1532,0.1536,0.1584,0.1594,0.1599,0.1608,0.1613,0.1624,0.1658,0.1638,0.1642,0.1651,0.1701,0.1703,0.1707,0.1721,0.1733,0.1734,0.1735,0.1736,0.1831,0.1833,0,0,0,0,0,0,0.1531,0.1534,0.1582,0.1586,0.1573,0.1608,0.1614,0.1621,0.1658,0.1665,0.165,0.1653,0.17,0.1705,0.1709,0.1783,0.1734,0.1736,0.1737,0.183,0.1832,0.1834,0,0,0,0,0,0,0.1529,0.1534,0.1581,0.1563,0.157,0.1608,0.1615,0.1622,0.1662,0.1668,0.1675,0.1688,0.1701,0.1707,0.1753,0.1782,0.1736,0.1738,0.1828,0.183,0.1833,0.1873,0,0,0,0,0,0,0.1527,0.1533,0.1553,0.1563,0.1571,0.1611,0.1615,0.1622,0.1665,0.167,0.1702,0.1707,0.1703,0.1751,0.1754,0.1783,0.1739,0.1826,0.1829,0.1832,0.187,0.1877,0.1883,0,0,0,0,0,0.1524,0.154,0.1554,0.1561,0.1592,0.1612,0.1617,0.1645,0.1666,0.1685,0.1714,0.1708,0.1773,0.1753,0.1757,0.1787,0.1824,0.1828,0.1832,0.1867,0.1876,0.1883,0,0,0,0,0,0,0.1523,0.1546,0.1562,0.1585,0.1609,0.1621,0.1648,0.1665,0.1702,0.172,0.1725,0.1732,0.1783,0.1783,0.176,0.1826,0.1799,0.1804,0.1825,0.1833,0.184,0.1849,0.174,0,0,0,0,0,0.1531,0.1552,0.1573,0.1597,0.1613,0.1638,0.1657,0.1677,0.1703,0.1722,0.1744,0.1772,0.1794,0.1814,0.1831,0.1864,0.1874,0.1889,0.1896,0.1901,0.1913,0.1952,0.1963,0.1846,0.1846,0.1846,0,0,0.1539,0.1556,0.157,0.1599,0.1623,0.1645,0.1653,0.1693,0.172,0.1722,0.1778,0.1797,0.181,0.1849,0.1872,0.1857,0.1941,0.1906,0.191,0.192,0.1957,0.1968,0.1978,0.1849,0.1848,0.1848,0,0,0.1552,0.1581,0.1601,0.1623,0.1665,0.1676,0.1697,0.173,0.176,0.1804,0.1818,0.186,0.1892,0.1909,0.1918,0.1973,0.1974,0.1985,0.2026,0.2063,0.2072,0.2081,0.2109,0.2119,0.1988,0.1988,0.1988,0,0.1564,0.1585,0.1611,0.1635,0.1659,0.1695,0.172,0.1749,0.1797,0.1827,0.1832,0.1905,0.1917,0.1966,0.1989,0.1988,0.2009,0.199,0.207,0.2079,0.2087,0.2114,0.2125,0.199,0.199,0.199,0.199,0,0.1578,0.1611,0.1627,0.1666,0.1696,0.1726,0.1765,0.1808,0.1848,0.1875,0.1947,0.1968,0.2014,0.2023,0.2023,0.2092,0.2089,0.2072,0.2046,0.2101,0.2126,0.2137,0.1994,0.1993,0.1992,0.1992,0,0,0.1563,0.1623,0.1634,0.1657,0.1717,0.1735,0.1796,0.1849,0.1896,0.1949,0.2008,0.2055,0.2087,0.2102,0.2115,0.2148,0.222,0.2144,0.2145,0.2165,0.2309,0.2168,0.2166,0.2223,0.2225,0.2226,0.2303,0,0.1569,0.1608,0.1644,0.1691,0.1713,0.177,0.1817,0.1878,0.1935,0.2001,0.2049,0.2111,0.211,0.2147,0.2183,0.2216,0.2253,0.2201,0.2259,0.2261,0.2122,0.2174,0.2233,0.2311,0.2313,0.2315,0.2316,0,0.1564,0.1592,0.1637,0.1701,0.1719,0.176,0.1847,0.1898,0.1998,0.2048,0.2126,0.2169,0.225,0.223,0.2322,0.2295,0.2316,0.2328,0.233,0.2192,0.2139,0.2246,0.2336,0.2335,0.2333,0.2332,0.2331,0,0.152,0.1586,0.162,0.1642,0.1721,0.1767,0.1821,0.1921,0.198,0.2097,0.2155,0.2244,0.2308,0.2351,0.2395,0.2374,0.2477,0.2441,0.2332,0.2323,0.2408,0.2398,0.2503,0.2503,0.2503,0.2503,0.2503,0,0.149,0.1522,0.1608,0.1624,0.168,0.1752,0.1833,0.1903,0.2016,0.2084,0.2188,0.2248,0.2346,0.2413,0.2428,0.2417,0.251,0.2351,0.2335,0.2424,0.2415,0.2416,0.2405,0.2506,0.2505,0.2505,0.2504,0,0.143,0.1487,0.1531,0.1624,0.1661,0.1706,0.1837,0.1885,0.2012,0.2106,0.2154,0.2288,0.2368,0.244,0.2515,0.245,0.2455,0.2428,0.2534,0.2521,0.2267,0.2258,0.2303,0.2299,0.2295,0.2292,0.2289,0,0.1394,0.1412,0.1519,0.155,0.1599,0.1685,0.1737,0.1871,0.1925,0.2106,0.2131,0.2272,0.2342,0.2335,0.2417,0.2437,0.2409,0.2394,0.2312,0.2268,0.2249,0.2245,0.2241,0.2284,0.2283,0.2282,0.2281,0,0.1325,0.1382,0.1418,0.1485,0.1547,0.1601,0.1691,0.1721,0.1869,0.2006,0.2063,0.2112,0.2198,0.2245,0.2286,0.2292,0.2388,0.2355,0.2361,0.2284,0.2245,0.2229,0.2229,0.2268,0.227,0.2271,0.2272,0,0.128,0.129,0.1352,0.1397,0.147,0.1489,0.155,0.1609,0.1684,0.1878,0.1895,0.2039,0.2173,0.2172,0.2206,0.2206,0.2164,0.208,0.21,0.2115,0.2017,0.1938,0.1862,0,0,0,0,0,0.1223,0.1221,0.1254,0.1293,0.1359,0.1401,0.1501,0.1563,0.1714,0.1705,0.1796,0.1864,0.1923,0.1999,0.1961,0.2122,0.2171,0.2067,0.2083,0.2198,0.2213,0.2114,0,0,0,0,0,0,0.1181,0.1212,0.1216,0.1198,0.1206,0.126,0.1317,0.1413,0.1417,0.158,0.1622,0.1752,0.1837,0.1928,0.1927,0.195,0.192,0.2164,0.2159,0.219,0.2203,0.2215,0.2118,0,0,0,0,0]},{"header":{"parameterUnit":"m.s-1","parameterCategory":2,"la1":30.2991,"la2":30.254,"lo1":-89.0895,"lo2":-89.0444,"dy":0.0017,"dx":0.0017,"nx":28,"ny":28,"refTime":"2025-08-31T21:00:00:Z","depth":"4","parameterNumber":3,"parameterNumberName":"V-component_of_CURRENTS"},"data":[0,0,0,0,0,0,0,0,0,0,0,0,0,0,0,0,0,0,0,0,0,0,0,0,0,0,0,0,0,0,0,0,0,0,0,0,0,0,0,0,0,0,0,0,0,0,0,0,0,0,0,0,0,0,0,0,0,0,0.0145,0.0145,0,0.0113,0.0112,0.0112,0.0093,0.0093,0.0093,0.0093,0.0051,0.005,0.0049,0,0,0,0,0,0,0,0,0,0,0,0,0,0.0157,0.0157,0.0145,0.0145,0.0144,0.0113,0.0112,0.0112,0.0093,0.0093,0.0093,0.0093,0.0052,0.005,0.0049,0,0,0,0,0,0,0,0,0,0,0,0,0,0.0141,0.0157,0.0145,0.0131,0.013,0.0113,0.0112,0.0112,0.0093,0.0093,0.0093,0.0093,0.0052,0.005,0.0049,0.0041,0,0,0.0044,0.0043,0,0,0,0,0,0,0,0,0.0141,0.014,0.0134,0.0132,0.0131,0.0107,0.0101,0.0087,0.0093,0.0107,0.0093,0.0093,0.0069,0.0066,0.006,0.0039,0.0037,0.0044,0.0043,0.0042,0.0042,0,0,0,0,0,0,0,0.0143,0.0141,0.0132,0.0133,0.0131,0.0115,0.0113,0.0098,0.0088,0.0106,0.0104,0.0101,0.0068,0.0062,0.0059,0.0036,0.0044,0.0042,0.0042,0.0041,0.0016,0.0016,0,0,0,0,0,0,0.0149,0.0143,0.0133,0.0131,0.0136,0.0115,0.0113,0.0114,0.0089,0.0085,0.0101,0.01,0.0064,0.0061,0.0057,0.0066,0.0042,0.0041,0.004,0.0015,0.0016,0.0016,0,0,0,0,0,0,0.015,0.0149,0.0134,0.0136,0.0133,0.0115,0.0117,0.0114,0.0111,0.0085,0.0081,0.0102,0.0064,0.006,0.0052,0.0064,0.004,0.0039,0.0015,0.0015,0.0016,0.0071,0,0,0,0,0,0,0.015,0.0149,0.0153,0.0137,0.0133,0.0132,0.0117,0.0113,0.0109,0.0108,0.0085,0.0081,0.0064,0.0055,0.0051,0.0061,0.0037,0.0015,0.0015,0.0016,0.0069,0.0073,0.0077,0,0,0,0,0,0.0151,0.016,0.0154,0.0153,0.0139,0.0133,0.013,0.0116,0.0109,0.0113,0.0098,0.0082,0.0055,0.0054,0.0049,0.0059,0.0014,0.0015,0.0016,0.0067,0.0072,0.0077,0,0,0,0,0,0,0.0165,0.0158,0.0151,0.0157,0.0149,0.013,0.0131,0.0121,0.0111,0.0111,0.0086,0.0081,0.0077,0.006,0.0059,0.0052,0.0032,0.0031,0.0072,0.0077,0.0081,0.0094,0.0036,0,0,0,0,0,0.0171,0.0177,0.0164,0.0169,0.0166,0.0149,0.0145,0.0137,0.0125,0.012,0.0104,0.0087,0.0075,0.007,0.0054,0.0052,0.0026,0.0055,0.0059,0.0062,0.0069,0.0039,0.0041,0.0018,0.0018,0.0018,0,0,0.0176,0.0174,0.0176,0.0172,0.0164,0.017,0.0147,0.0146,0.0153,0.0117,0.0121,0.0099,0.0076,0.0075,0.0072,0.0063,0.0054,0.0063,0.0067,0.0071,0.0039,0.0042,0.0044,0.0018,0.0018,0.0018,0,0,0.0195,0.0191,0.0203,0.0201,0.0195,0.0187,0.0189,0.0175,0.0171,0.0169,0.0147,0.0134,0.0114,0.0103,0.0094,0.011,0.0075,0.0103,0.0138,0.0109,0.0111,0.0112,0.0079,0.0077,0.0108,0.0109,0.0109,0,0.0202,0.0218,0.0205,0.0217,0.0222,0.0199,0.0216,0.0208,0.0194,0.0196,0.0178,0.015,0.0129,0.0129,0.0136,0.012,0.0095,0.0124,0.0115,0.0116,0.0116,0.0082,0.0079,0.0111,0.0111,0.0111,0.011,0,0.023,0.0243,0.0251,0.0262,0.0265,0.0275,0.0266,0.0267,0.0257,0.0248,0.0241,0.0206,0.0192,0.018,0.0164,0.0161,0.0139,0.0122,0.0105,0.0122,0.0085,0.0081,0.0115,0.0114,0.0113,0.0113,0,0,0.0244,0.0268,0.0271,0.0291,0.0293,0.0302,0.0314,0.0322,0.0338,0.0309,0.0319,0.0289,0.0266,0.0254,0.0225,0.02,0.0178,0.0169,0.0166,0.0141,0.011,0.0096,0.009,0.0159,0.0159,0.0158,0.0082,0,0.0271,0.0313,0.0314,0.0354,0.0377,0.0367,0.0386,0.0389,0.0381,0.0383,0.0342,0.0338,0.0296,0.0291,0.0259,0.0199,0.017,0.02,0.0093,0.009,0.008,0.0086,0.0157,0.0079,0.0078,0.0077,0.0077,0,0.0298,0.0326,0.0373,0.0415,0.0424,0.0444,0.0474,0.049,0.0483,0.0475,0.0454,0.0417,0.038,0.0338,0.0242,0.0263,0.0195,0.0141,0.0136,0.0104,0.0069,0.0058,0.0069,0.0069,0.007,0.007,0.0071,0,0.0324,0.0369,0.0414,0.0426,0.0464,0.0487,0.051,0.052,0.0548,0.0536,0.0542,0.0483,0.0457,0.0364,0.025,0.0247,0.0134,0.0113,0.0035,0.0032,0.0043,0.0042,0.0045,0.0045,0.0045,0.0045,0.0045,0,0.0352,0.0389,0.0433,0.0457,0.052,0.0531,0.0592,0.06,0.0622,0.0656,0.0596,0.0593,0.0463,0.038,0.0269,0.0139,0.0145,0.0042,0.0014,0.0067,0.007,0.0039,0.004,0.0042,0.0043,0.0043,0.0044,0,0.0371,0.0397,0.0456,0.051,0.0534,0.0581,0.0655,0.0697,0.0707,0.0743,0.0742,0.0677,0.0567,0.0426,0.027,0.0172,0.0045,-0.0004,0.0063,0.004,-0.0044,-0.004,-0.0096,-0.0097,-0.0098,-0.0099,-0.01,0,0.0384,0.0415,0.0496,0.054,0.0569,0.0642,0.0696,0.0737,0.0779,0.0792,0.0806,0.072,0.0652,0.0426,0.0273,0.0056,0.0023,-0.0048,-0.0047,-0.0035,-0.0057,-0.0052,-0.0046,-0.0101,-0.0101,-0.0101,-0.0102,0,0.0407,0.0437,0.0487,0.0577,0.0644,0.0726,0.0798,0.0835,0.0877,0.0884,0.0855,0.0739,0.0613,0.043,0.0261,0.0106,-0.0005,-0.0058,-0.0057,-0.0057,-0.0042,-0.0061,-0.0055,-0.0105,-0.0104,-0.0104,-0.0104,0,0.0424,0.0463,0.0529,0.0611,0.0698,0.0779,0.0821,0.0866,0.0908,0.091,0.0897,0.0762,0.0685,0.0456,0.0302,0.0146,0.0102,0.0045,0.0039,0.0041,0.0099,0.0139,0.0112,0,0,0,0,0,0.0439,0.0483,0.0557,0.0647,0.0734,0.0787,0.0875,0.0909,0.0943,0.0927,0.0915,0.0796,0.0571,0.0479,0.0321,0.0276,0.007,0.0083,-0.0001,-0.0122,-0.0118,-0.0075,0,0,0,0,0,0,0.0447,0.0515,0.0553,0.0661,0.0725,0.0825,0.0884,0.0911,0.0904,0.0908,0.0795,0.0741,0.0527,0.0656,0.0311,0.0266,0.0188,-0.0018,-0.0022,-0.0124,-0.0121,-0.0118,-0.0072,0,0,0,0,0]}]]